When you browse on this site, cookies collect data to enhance your experience and personalize the content and advertising you see.
Visit our Privacy Policy to learn more. By continuing to use the site, you agree to this use of cookies and data.
  • In Latvia
  • List of Countries
  • For 7 days
  • Water Temperature
  • Weather Map
  • Weather Widgets
  • user-avatar
    Login

    Hourly Weather Verhnevodyanoy

    Today, 20 August, Tuesday

    Time Temperature Precipitation Wind Pressure Humidity
    00:00 +28°C° 0 mm 2 mps 749 mmHg 38%
    01:00 +28°C° 0 mm 2 mps 749 mmHg 39%
    02:00 +27°C° 0 mm 2 mps 749 mmHg 40%
    03:00 +26°C° 0 mm 3 mps 749 mmHg 43%
    04:00 +26°C° 0 mm 3 mps 750 mmHg 44%
    05:00 +26°C° 0 mm 3 mps 750 mmHg 45%
    06:00 +26°C° 0 mm 3 mps 750 mmHg 45%
    07:00 +27°C° 0 mm 3 mps 750 mmHg 41%
    08:00 +29°C° 0 mm 3 mps 750 mmHg 37%
    09:00 +31°C° 0 mm 3 mps 750 mmHg 33%
    10:00 +34°C° 0 mm 3 mps 750 mmHg 29%
    11:00 +35°C° 0 mm 3 mps 750 mmHg 24%
    12:00 +37°C° 0 mm 4 mps 750 mmHg 20%
    13:00 +37°C° 0 mm 4 mps 750 mmHg 20%
    14:00 +38°C° 0 mm 4 mps 749 mmHg 19%
    15:00 +40°C° 0 mm 4 mps 749 mmHg 19%
    16:00 +39°C° 0 mm 3 mps 749 mmHg 20%
    17:00 +38°C° 0 mm 2 mps 749 mmHg 20%
    18:00 +38°C° 0 mm 2 mps 749 mmHg 21%
    19:00 +36°C° 0 mm 3 mps 749 mmHg 21%
    20:00 +35°C° 0 mm 3 mps 749 mmHg 22%
    21:00 +33°C° 0 mm 4 mps 749 mmHg 22%
    22:00 +32°C° 0 mm 4 mps 749 mmHg 24%
    23:00 +30°C° 0 mm 4 mps 749 mmHg 25%

    Tomorrow, 21 August, Wednesday

    Time Temperature Precipitation Wind Pressure Humidity
    00:00 +29°C° 0 mm 4 mps 749 mmHg 27%
    01:00 +28°C° 0 mm 4 mps 749 mmHg 30%
    02:00 +27°C° 0 mm 3 mps 749 mmHg 33%
    03:00 +26°C° 0 mm 3 mps 749 mmHg 36%
    04:00 +26°C° 0 mm 3 mps 749 mmHg 38%
    05:00 +26°C° 0 mm 3 mps 749 mmHg 39%
    06:00 +25°C° 0 mm 3 mps 749 mmHg 40%
    07:00 +27°C° 0 mm 3 mps 749 mmHg 35%
    08:00 +30°C° 0 mm 3 mps 750 mmHg 29%
    09:00 +33°C° 0 mm 3 mps 750 mmHg 24%
    10:00 +35°C° 0 mm 4 mps 750 mmHg 21%
    11:00 +36°C° 0 mm 4 mps 749 mmHg 18%
    12:00 +38°C° 0 mm 4 mps 749 mmHg 16%
    13:00 +39°C° 0 mm 5 mps 749 mmHg 15%
    14:00 +40°C° 0 mm 5 mps 748 mmHg 14%
    15:00 +40°C° 0 mm 5 mps 748 mmHg 14%
    16:00 +39°C° 0 mm 5 mps 748 mmHg 15%
    17:00 +38°C° 0 mm 4 mps 747 mmHg 16%
    18:00 +37°C° 0 mm 4 mps 747 mmHg 17%
    19:00 +35°C° 0 mm 4 mps 747 mmHg 18%
    20:00 +34°C° 0 mm 4 mps 747 mmHg 18%
    21:00 +32°C° 0 mm 4 mps 747 mmHg 19%
    22:00 +30°C° 0 mm 4 mps 747 mmHg 23%
    23:00 +29°C° 0 mm 4 mps 747 mmHg 27%

    Day after tomorrow, 22 August, Thursday

    Time Temperature Precipitation Wind Pressure Humidity
    00:00 +28°C° 0 mm 4 mps 747 mmHg 32%
    01:00 +28°C° 0 mm 4 mps 747 mmHg 31%
    02:00 +27°C° 0 mm 4 mps 747 mmHg 30%
    03:00 +27°C° 0 mm 3 mps 747 mmHg 29%
    04:00 +27°C° 0 mm 3 mps 747 mmHg 30%
    05:00 +26°C° 0 mm 3 mps 747 mmHg 30%
    06:00 +26°C° 0 mm 3 mps 747 mmHg 31%
    07:00 +28°C° 0 mm 4 mps 747 mmHg 27%
    08:00 +32°C° 0 mm 4 mps 748 mmHg 24%
    09:00 +34°C° 0 mm 5 mps 748 mmHg 20%
    10:00 +36°C° 0 mm 5 mps 748 mmHg 18%
    11:00 +37°C° 0 mm 5 mps 748 mmHg 16%
    12:00 +40°C° 0 mm 6 mps 747 mmHg 13%
    13:00 +40°C° 0 mm 6 mps 747 mmHg 13%
    14:00 +41°C° 0 mm 6 mps 747 mmHg 13%
    15:00 +41°C° 0 mm 6 mps 747 mmHg 13%
    16:00 +40°C° 0 mm 5 mps 746 mmHg 14%
    17:00 +38°C° 0 mm 4 mps 746 mmHg 15%
    18:00 +38°C° 0 mm 3 mps 746 mmHg 16%
    19:00 +36°C° 0 mm 3 mps 746 mmHg 17%
    20:00 +34°C° 0 mm 3 mps 747 mmHg 18%
    21:00 +33°C° 0 mm 3 mps 747 mmHg 19%
    22:00 +32°C° 0 mm 4 mps 747 mmHg 21%
    23:00 +30°C° 0 mm 4 mps 747 mmHg 24%

    23 August, Friday

    Time Temperature Precipitation Wind Pressure Humidity
    00:00 +29°C° 0 mm 4 mps 747 mmHg 26%
    01:00 +29°C° 0 mm 4 mps 747 mmHg 28%
    02:00 +28°C° 0 mm 4 mps 747 mmHg 29%
    03:00 +28°C° 0 mm 4 mps 747 mmHg 31%
    04:00 +28°C° 0 mm 3 mps 747 mmHg 31%
    05:00 +27°C° 0 mm 3 mps 747 mmHg 31%
    06:00 +27°C° 0 mm 3 mps 747 mmHg 31%
    07:00 +29°C° 0 mm 3 mps 747 mmHg 29%
    08:00 +32°C° 0 mm 4 mps 747 mmHg 27%
    09:00 +34°C° 0 mm 4 mps 748 mmHg 25%
    10:00 +36°C° 0 mm 4 mps 747 mmHg 22%
    11:00 +37°C° 0 mm 4 mps 747 mmHg 19%
    12:00 +40°C° 0 mm 4 mps 747 mmHg 17%
    13:00 +40°C° 0 mm 4 mps 747 mmHg 16%
    14:00 +41°C° 0 mm 4 mps 747 mmHg 15%
    15:00 +41°C° 0 mm 4 mps 746 mmHg 14%
    16:00 +40°C° 0 mm 4 mps 746 mmHg 16%
    17:00 +38°C° 0 mm 3 mps 746 mmHg 17%
    18:00 +37°C° 0 mm 3 mps 746 mmHg 19%
    19:00 +37°C° 0 mm 3 mps 746 mmHg 19%
    20:00 +36°C° 0 mm 3 mps 746 mmHg 20%
    21:00 +35°C° 0 mm 3 mps 747 mmHg 20%
    22:00 +34°C° 0 mm 3 mps 746 mmHg 22%
    23:00 +33°C° 0 mm 3 mps 746 mmHg 24%

    24 August, Saturday

    Time Temperature Precipitation Wind Pressure Humidity
    00:00 +30°C° 0 mm 3 mps 746 mmHg 26%
    01:00 +30°C° 0 mm 3 mps 746 mmHg 30%
    02:00 +29°C° 0 mm 4 mps 746 mmHg 34%
    03:00 +28°C° 0 mm 4 mps 746 mmHg 38%
    04:00 +28°C° 0 mm 4 mps 746 mmHg 41%
    05:00 +28°C° 0 mm 4 mps 746 mmHg 43%
    06:00 +27°C° 0 mm 4 mps 746 mmHg 46%
    07:00 +29°C° 0 mm 4 mps 747 mmHg 42%
    08:00 +30°C° 0 mm 4 mps 747 mmHg 39%
    09:00 +33°C° 0 mm 4 mps 747 mmHg 35%
    10:00 +35°C° 0 mm 5 mps 747 mmHg 30%
    11:00 +36°C° 0 mm 5 mps 747 mmHg 25%
    12:00 +39°C° 0 mm 6 mps 747 mmHg 21%
    13:00 +40°C° 0 mm 6 mps 747 mmHg 20%
    14:00 +40°C° 0 mm 6 mps 746 mmHg 19%
    15:00 +41°C° 0 mm 6 mps 746 mmHg 18%
    16:00 +39°C° 0 mm 6 mps 746 mmHg 20%
    17:00 +37°C° 0 mm 5 mps 746 mmHg 23%
    18:00 +35°C° 0 mm 5 mps 747 mmHg 26%
    19:00 +34°C° 0.1 mm 5 mps 747 mmHg 28%
    20:00 +33°C° 0.1 mm 4 mps 747 mmHg 30%
    21:00 +30°C° 0.1 mm 4 mps 748 mmHg 32%
    22:00 +30°C° 0 mm 4 mps 748 mmHg 34%
    23:00 +29°C° 0 mm 4 mps 748 mmHg 36%

    25 August, Sunday

    Time Temperature Precipitation Wind Pressure Humidity
    00:00 +28°C° 0 mm 3 mps 748 mmHg 38%
    01:00 +28°C° 0 mm 3 mps 748 mmHg 42%
    02:00 +27°C° 0 mm 3 mps 748 mmHg 46%
    03:00 +26°C° 0 mm 3 mps 748 mmHg 50%
    04:00 +26°C° 0 mm 3 mps 749 mmHg 49%
    05:00 +25°C° 0 mm 3 mps 749 mmHg 48%
    06:00 +25°C° 0 mm 4 mps 749 mmHg 47%
    07:00 +27°C° 0 mm 4 mps 749 mmHg 42%
    08:00 +29°C° 0 mm 4 mps 750 mmHg 37%
    09:00 +32°C° 0 mm 5 mps 750 mmHg 32%
    10:00 +32°C° 0 mm 6 mps 750 mmHg 33%
    11:00 +33°C° 0 mm 6 mps 750 mmHg 34%
    12:00 +33°C° 0 mm 7 mps 750 mmHg 36%
    13:00 +33°C° 0 mm 6 mps 750 mmHg 36%
    14:00 +34°C° 0 mm 5 mps 750 mmHg 36%
    15:00 +34°C° 0 mm 5 mps 750 mmHg 36%
    16:00 +33°C° 0 mm 4 mps 750 mmHg 35%
    17:00 +33°C° 0 mm 4 mps 750 mmHg 33%
    18:00 +31°C° 0 mm 3 mps 750 mmHg 32%
    19:00 +30°C° 0 mm 2 mps 750 mmHg 34%
    20:00 +29°C° 0 mm 2 mps 750 mmHg 35%
    21:00 +28°C° 0 mm 1 mps 751 mmHg 37%
    22:00 +27°C° 0 mm 1 mps 751 mmHg 38%
    23:00 +27°C° 0 mm 2 mps 751 mmHg 39%
    Show more